Theta_e
319 319 318 317 317 318 317 316 315 315 316 315 313 312 311 313 313 313 312 312 311 312 312 312 312 312 313 313 313 312 311 312 313 314 313 312 311 311 310 311 310 310
318 318 317 317 316 316 316 316 316 315 314 313 312 311 312 312 312 312 312 310 309 310 311 311 311 311 310 310 311 311 310 310 309 312 311 310 309 310 308 310 309 310
316 316 315 314 314 315 315 316 317 314 313 312 313 313 312 313 312 312 311 311 310 309 310 310 310 310 310 309 310 310 309 308 308 310 310 310 309 308 308 309 308 308
315 315 315 314 314 314 315 314 314 313 313 312 311 312 312 312 312 311 311 311 309 309 309 309 309 309 309 309 309 308 308 308 308 309 308 309 308 308 308 308 308 307
314 314 314 314 314 314 314 312 312 312 311 312 312 312 312 311 310 309 309 309 309 308 308 308 308 308 309 308 308 307 307 307 307 307 307 306 308 308 307 307 306 306
314 313 313 313 313 313 312 310 309 310 310 311 311 311 311 310 309 308 308 307 307 307 307 307 306 307 308 307 308 307 307 306 306 306 305 305 306 306 307 306 304 303
312 313 312 312 312 313 311 310 311 310 310 310 310 310 310 309 308 307 306 306 306 305 304 304 305 305 306 306 306 306 307 306 306 305 305 305 305 304 305 304 304 302
312 312 312 311 311 311 310 309 309 310 310 310 309 309 309 307 308 308 307 306 305 303 303 303 303 303 304 304 303 305 307 307 306 305 305 304 304 302 303 304 304 302
311 311 310 310 310 310 309 308 309 309 309 309 308 309 309 308 308 307 307 305 303 303 302 301 301 301 302 302 302 303 304 305 306 305 305 304 303 302 302 302 302 301
311 311 310 310 309 309 308 308 309 309 309 309 308 308 308 308 308 306 306 304 303 302 301 300 299 299 300 301 302 302 304 305 304 305 304 303 303 302 302 301 300 300
310 310 309 309 308 308 309 309 308 308 308 307 308 308 308 308 307 306 305 304 303 301 300 299 298 298 299 300 301 303 305 305 304 304 304 303 304 303 303 301 300 299
308 308 308 308 308 308 308 308 308 308 307 308 307 306 307 307 306 305 304 302 302 300 299 298 297 298 298 298 299 301 303 305 305 305 305 303 303 302 301 301 300 299
306 307 307 307 307 307 308 307 307 307 306 306 307 307 306 306 306 305 305 303 302 300 298 297 297 297 297 297 298 299 300 303 305 304 304 303 302 302 301 301 300 299
306 307 307 307 307 306 306 307 306 306 307 307 307 307 307 306 305 304 304 303 302 300 298 297 296 296 296 295 296 297 298 300 303 304 303 301 302 302 302 300 300 299
306 306 306 306 306 306 306 306 306 306 306 306 306 307 308 306 305 305 303 302 301 300 297 297 296 296 295 294 294 295 297 300 301 303 302 302 301 302 301 300 299 299
305 306 305 305 305 305 305 305 305 306 306 306 306 306 306 306 305 304 302 301 299 298 298 297 295 296 295 293 293 294 295 299 300 303 303 302 301 301 300 300 299 299
304 304 304 304 305 305 305 305 305 306 305 306 306 306 306 306 305 303 301 299 298 297 297 296 295 295 293 291 292 292 295 296 299 302 303 302 301 299 299 299 298 298
303 303 303 303 303 303 304 304 305 305 304 305 305 305 305 306 305 303 302 300 298 297 296 296 295 294 291 292 292 291 293 295 299 303 302 302 300 299 299 299 298 298
302 302 302 302 302 303 304 304 303 303 303 303 304 305 305 304 304 305 303 301 298 296 295 295 295 293 291 292 292 291 291 294 299 304 301 301 300 299 299 299 298 298
302 302 301 302 302 302 303 302 303 302 303 303 303 303 303 304 304 304 304 302 300 298 296 295 295 293 291 292 292 291 291 293 301 302 302 302 300 299 300 300 298 298
301 301 301 301 302 302 303 302 302 303 303 303 304 303 303 302 302 303 304 303 301 299 298 296 295 292 291 291 291 291 292 296 301 301 301 301 302 301 300 301 299 299
301 301 301 301 301 302 302 302 303 302 302 303 303 302 303 302 302 302 303 303 304 301 299 296 295 291 291 291 292 291 293 299 300 298 299 299 300 301 299 300 299 297
301 301 301 301 301 301 301 301 301 302 302 303 302 302 302 301 301 300 300 301 301 303 300 297 295 292 291 291 291 291 294 297 298 297 297 297 297 299 299 301 300 297
301 300 301 301 301 301 301 302 302 303 303 304 302 301 301 301 301 300 299 299 299 299 302 298 295 294 291 291 291 291 294 296 297 296 295 295 296 298 299 300 298 302
301 301 301 301 301 301 302 302 302 302 303 304 303 303 302 302 301 301 301 300 299 300 301 301 297 295 292 291 291 291 294 295 296 295 294 293 295 296 298 298 299 299
302 302 301 301 301 302 302 302 303 303 303 302 302 300 299 300 301 301 301 301 301 300 301 302 300 298 295 292 292 292 292 295 296 294 293 292 294 295 296 296 296 296
Wind_Speed
5 4 5 6 5 5 5 6 5 4 3 5 6 5 5 4 5 5 5 5 6 6 6 5 6 5 5 5 5 5 5 5 4 4 3 4 5 5 6 6 6 5
6 5 5 5 5 5 6 5 3 3 6 6 5 5 5 5 5 5 5 6 6 7 6 6 6 6 6 5 5 5 5 5 5 4 4 6 5 5 6 6 6 6
7 7 7 7 6 7 6 4 2 5 6 5 5 4 4 4 5 4 5 5 6 6 6 6 6 6 6 6 5 5 4 5 5 5 4 4 4 4 5 5 5 6
7 6 7 7 6 6 6 5 6 5 4 5 4 4 4 4 4 5 5 6 5 5 5 6 6 6 6 6 5 5 5 5 5 4 4 4 5 5 5 5 5 4
6 7 7 7 6 5 5 7 7 5 5 5 5 4 4 4 4 5 4 5 5 5 5 6 6 6 6 5 5 5 5 5 5 5 5 5 4 4 4 5 6 5
6 7 7 7 7 6 6 7 7 6 6 5 5 4 4 5 5 5 5 6 6 6 6 6 6 6 6 6 5 4 4 4 5 5 5 5 4 6 5 6 6 6
7 6 7 7 7 7 7 7 6 6 5 5 5 4 5 5 5 6 7 6 7 7 7 7 7 7 6 5 5 4 4 4 4 5 5 4 5 6 5 5 6 6
7 7 6 6 7 7 7 7 6 5 5 5 5 5 5 6 6 4 6 6 7 8 8 8 8 7 7 6 6 5 3 4 4 5 5 5 4 5 4 5 5 6
7 7 7 7 7 6 7 7 6 6 6 5 5 5 5 5 5 6 7 7 8 7 7 8 8 8 7 7 6 7 6 4 4 4 4 5 4 5 6 6 6 6
7 7 8 7 7 6 7 6 6 5 5 6 6 5 5 4 5 7 7 7 7 7 8 8 8 8 8 7 7 7 5 5 5 4 5 5 5 6 6 6 6 6
8 7 7 7 7 6 7 6 6 5 5 6 5 6 5 4 5 7 7 7 7 8 8 8 9 8 8 8 7 7 6 4 4 4 4 4 4 6 7 7 7 7
8 8 8 7 7 7 7 6 5 5 5 5 7 7 6 6 6 6 6 7 8 8 8 8 8 8 9 9 8 8 8 5 4 3 3 4 5 5 5 6 6 7
8 7 7 7 6 6 6 6 6 5 6 6 6 6 6 6 6 7 5 7 8 8 8 8 8 8 8 8 8 8 8 8 3 4 4 4 4 5 5 5 5 6
8 7 7 7 6 6 6 6 6 6 6 5 5 6 6 6 6 6 5 7 7 8 8 7 7 8 8 8 8 8 7 9 6 3 4 5 3 4 4 5 6 6
7 7 6 7 7 7 7 6 6 6 6 6 5 5 4 5 7 6 7 8 7 7 8 7 6 6 5 6 7 8 7 7 8 3 4 3 3 3 3 5 5 5
8 7 8 8 8 8 7 7 6 6 6 6 6 6 5 5 6 7 8 7 7 7 7 6 6 5 8 11 7 6 6 6 7 4 3 3 3 3 4 4 4 4
8 8 8 8 8 7 7 7 7 6 6 7 6 5 5 5 5 7 7 7 8 7 6 5 6 6 13 14 15 14 7 6 6 4 3 3 3 4 4 3 5 4
8 9 9 9 8 8 8 8 7 7 7 6 6 6 4 4 5 6 7 7 6 6 6 5 6 9 14 15 15 17 12 6 6 2 4 3 3 5 3 3 3 3
9 9 9 8 8 8 7 7 7 7 7 7 6 5 4 5 4 4 6 7 6 6 6 6 6 10 14 15 16 17 17 12 5 2 4 3 3 5 3 3 4 3
9 9 9 9 8 8 7 8 7 7 6 6 5 5 5 4 4 4 4 6 6 6 5 5 6 9 13 15 15 17 17 13 5 4 3 3 4 4 3 2 4 2
10 9 9 9 8 8 7 7 7 6 6 5 4 5 5 4 4 3 3 4 6 5 4 5 5 10 12 14 15 17 18 13 4 6 4 4 2 3 4 3 1 4
10 9 9 8 9 8 8 7 6 5 5 4 4 4 4 4 4 3 3 3 3 5 5 5 4 9 11 13 15 16 16 9 5 6 6 7 7 3 5 3 3 4
10 10 9 9 8 8 8 7 6 5 5 4 5 4 4 4 4 4 3 3 3 3 5 4 4 6 9 10 12 14 12 8 6 6 6 7 9 6 4 2 3 4
10 10 9 9 8 8 7 6 5 4 4 4 4 4 5 5 5 5 5 4 4 3 2 5 3 4 7 9 10 12 11 7 6 6 6 8 8 8 9 2 3 7
9 9 9 8 9 8 6 6 5 4 3 3 3 3 4 4 4 4 5 4 4 3 3 4 4 3 5 7 9 9 8 6 6 5 6 7 7 8 8 6 2 3
8 8 8 8 8 7 6 5 4 4 4 5 5 4 4 4 3 3 3 3 5 4 3 2 4 3 3 5 6 7 7 6 5 5 6 7 7 7 8 6 6 8
Wind_Direction
81 78 75 62 60 73 82 81 75 104 115 76 66 65 61 45 39 39 53 54 51 38 37 33 33 28 25 31 16 38 36 10 13 350 28 24 13 17 13 5 18 347
96 97 93 83 80 73 73 73 87 87 76 74 78 71 68 65 48 44 37 50 49 45 36 32 29 30 29 27 22 29 36 13 7 353 22 31 17 14 15 9 5 353
96 97 96 97 92 87 93 109 103 67 72 80 73 74 79 68 65 51 49 48 50 45 38 32 26 27 30 28 27 16 30 20 5 360 20 26 20 22 19 14 356 19
111 109 112 117 123 141 148 124 94 91 90 83 84 81 76 78 73 62 50 52 52 45 45 36 32 24 26 28 27 22 12 24 2 0 20 12 24 29 23 16 356 34
126 138 135 135 147 123 97 95 94 89 81 78 77 68 71 70 69 63 59 49 47 53 40 42 34 28 21 24 29 23 15 15 4 6 22 12 22 21 23 20 356 22
132 123 118 111 93 99 108 107 101 96 92 90 84 77 68 65 60 60 61 60 44 40 43 36 38 27 17 23 13 27 24 7 12 11 25 18 15 24 23 18 3 18
103 96 102 101 97 81 82 82 84 87 90 94 91 86 79 67 65 63 55 50 52 46 37 32 34 25 16 19 8 8 29 13 15 13 18 25 16 28 29 11 20 12
114 109 103 106 111 110 103 100 94 90 83 74 71 69 73 73 70 66 72 63 54 46 36 35 25 25 15 8 10 354 11 21 13 16 21 25 24 25 23 15 24 21
117 114 109 103 99 98 98 98 99 101 99 95 83 73 70 75 67 63 58 61 56 48 41 35 29 19 16 4 8 354 353 23 15 14 28 22 14 33 28 20 26 24
115 113 110 108 105 104 102 99 93 84 85 90 94 88 77 65 72 70 67 56 52 50 42 38 27 21 14 5 3 349 344 23 17 15 33 18 10 39 29 25 25 25
115 111 107 104 103 100 98 95 91 92 93 89 83 84 80 82 77 77 68 62 55 45 40 36 30 22 17 5 360 343 338 23 14 23 40 11 19 34 35 31 21 31
113 112 111 110 107 105 104 104 102 99 93 90 93 92 87 76 71 60 67 65 56 48 42 37 33 26 18 7 357 346 338 343 31 8 27 36 16 41 46 32 38 22
121 117 116 114 109 107 105 103 101 97 91 86 89 95 96 90 81 80 72 66 63 55 45 36 33 29 18 3 353 346 339 325 39 348 30 48 19 32 38 46 39 35
118 119 118 118 117 107 99 96 92 84 81 82 85 85 86 92 95 91 86 75 66 63 52 40 31 29 17 1 348 344 336 327 343 27 22 33 18 29 37 46 33 30
119 117 117 114 112 109 104 101 99 102 105 98 85 74 74 87 90 83 78 72 69 64 58 42 33 23 21 358 343 342 336 337 324 354 34 26 18 11 46 50 28 23
126 128 122 116 114 112 109 105 99 96 93 89 86 87 79 78 89 87 76 70 63 61 60 48 27 20 355 6 10 357 326 330 320 330 25 23 7 344 63 55 40 24
130 125 128 119 109 110 115 108 101 94 87 84 82 84 90 94 91 90 83 71 67 59 54 50 30 5 358 5 357 5 1 326 313 323 359 4 14 342 50 33 43 10
132 130 123 124 124 118 114 114 114 107 99 99 100 96 89 85 88 96 94 84 73 66 54 43 30 9 4 4 1 355 358 339 303 344 326 37 15 341 34 42 51 15
134 130 127 123 118 115 113 111 107 105 102 98 95 93 87 81 77 85 102 101 86 69 55 37 28 11 7 7 2 357 351 344 306 349 340 31 35 334 19 15 61 21
129 127 121 116 116 116 116 110 108 103 106 105 103 94 89 87 82 82 97 101 97 87 67 44 28 4 13 6 3 357 349 343 291 353 346 1 31 345 334 22 73 25
129 123 122 123 120 117 113 111 113 124 121 120 116 116 114 104 93 82 72 97 105 99 83 60 25 11 17 9 3 0 349 338 353 349 354 332 39 323 305 83 61 63
130 125 121 121 121 119 120 120 119 113 109 107 104 100 100 101 95 83 70 67 99 109 101 76 42 22 20 11 3 2 351 338 351 7 351 343 334 351 342 69 50 79
127 126 124 127 126 124 121 119 121 124 120 123 116 113 109 105 104 92 74 60 41 68 107 92 62 25 29 17 4 1 356 342 341 14 350 347 331 333 343 83 62 78
132 131 130 128 129 127 126 128 126 120 123 133 131 137 135 134 129 118 111 85 69 48 50 112 86 43 37 23 12 0 355 344 341 10 357 344 335 337 329 64 100 83
130 130 131 129 123 124 129 128 123 115 112 113 125 134 142 141 130 132 130 130 118 113 53 108 125 96 50 35 18 3 359 342 349 15 351 347 332 330 319 331 94 173
128 129 126 125 126 128 131 126 132 146 159 163 168 153 135 121 117 110 121 137 156 159 141 102 109 108 77 53 25 353 2 342 342 4 354 342 335 323 325 335 353 344